COSMOS 2251 DEB, 34972

Orbit data source: Space-Track

COSMOS 2251 DEB, 34972 is space debris in LEO originally from a launch on Wed, 16 Jun 1993 UTC launched from the Plesetsk Missile And Space Complex (PKMTR). The debris from Iridium 33, an American commercial communications satellite, has been tracked extensively since its accidental collision with the defunct Russian satellite Cosmos 2251 in 2009. This event, occurring at high speed in low Earth orbit (LEO), generated thousands of pieces of space debris, significantly increasing the risk of further collisions. The Iridium 33 debris cloud has impacted space traffic management and orbital debris mitigation strategies, making it a subject of ongoing study in space situational awareness.

Loading next visibility...
Identifier
34972, 1993-036AFB
Orbit
LEO
Country
Flag of CISCIS
Related business
Manufacturer
Unknown
Mission
Spacecraft
Bus & Motor
Unknown
Mass
Unknown
Launch date (UTC)
1993-06-16 (33 years ago)
Launch vehicle
Unknown
Launch site
Plesetsk Missile And Space Complex (PKMTR)
Object type
Payload
Rocket body
Debris
Shape & HBR
Unknown shape, 0.1 m
Radar Cross Section
Small (<0.1 m²)

Expand to show TLE details & history
Last TLE update: 1 day ago

TLE from 1 day ago
0 COSMOS 2251 DEB
1 34972U 93036AFB 26122.29749630  .00009180  00000-0  13279-2 0  9991
2 34972  73.9840 134.5770 0036622 254.5060 119.0195 14.75801830897227
Epoch: 2026-05-02T07:08Z
TLE epoch observation values (Epoch: 2026-05-02T07:08:23.680Z)
Latitude
13.31293°
Longitude
171.13457°
Altitude
657.059 km
Speed
7.523 km/s
True Right ascension
09h 13m 48s
True Declination
13° 14' 06"
Sunlit
Object was in daylight at epoch
Visualization orbit readout
Latitude
Unknown
Longitude
Unknown
Altitude
Unknown
Speed
Unknown
Apparent Right ascension
Unknown
Apparent Declination
Unknown
Sunlit
N/A
Visualization observer readout
Local Sidereal Time
22:41:03
Azimuth
Unknown
Elevation
Unknown
Doppler factor
Unknown
Orbital elements
Apogee altitude
665.894 km
Perigee altitude
614.489 km
Semi-major axis
7,018.329 km
Eccentricity
0.00366
Inclination
73.984°
RAAN
134.577°
Arg. of periapsis
254.506°
True anomaly
119.38566°
Mean anomaly
119.0195°
Eccentric anomaly
119.20266°
Mean motion
3.69141 °/min
Orbital period
97.52 mins
BSTAR
0.0013279
Loading maneuver chart data...
Computing Atmospheric mass density...
Loading historical data...
Loading historical data...
Loading historical data...
Loading historical data...
Loading historical data...
Loading historical data...
Loading historical data...

Documentation

Showing up to 5 results
|